University AP, Davis, CA, CA

12:27 AM PST on December 09, 2019 (GMT -0800)
University AP, Davis, CA

Weather History for KEDU - October, 2019

Change the Weather History Date:

Saturday, October 26, 2019

  Actual Average (KSMF) Record (KSMF)
Temperature  
Mean Temperature 66 °F -  
Max Temperature 82 °F 74 °F 91 °F (2003)
Min Temperature 50 °F 48 °F 39 °F (2002)
Cooling Degree Days 1    
Growing Degree Days 16 (Base 50)    
Moisture  
Dew Point 36 °F    
Average Humidity 37    
Maximum Humidity 58    
Minimum Humidity 15    
Precipitation  
Precipitation 0.00 in - - ()
Sea Level Pressure  
Sea Level Pressure 29.85 in    
Wind  
Wind Speed 3 mph ()    
Max Wind Speed 17 mph    
Max Gust Speed 25 mph    
Visibility 9.7 miles    
Events      
Averages and records for this station are not official NWS values.
T = Trace of Precipitation, MM = Missing Value Source: Averaged Metar Reports

Daily Weather History Graph

Daily Weather History Graph

Search for Another Location

Airport or City:

Astronomy

Oct. 26, 2019 Rise Set
Actual Time 7:27 AM PDT 6:14 PM PDT
Civil Twilight 7:00 AM PDT 6:41 PM PDT
Nautical Twilight 6:29 AM PDT 7:12 PM PDT
Astronomical Twilight 5:58 AM PDT 7:43 PM PDT
Moon 5:31 AM PDT (10/26) 5:51 PM PDT (10/26)
Length of Visible Light 11h 41m
Length of Day
10h 47m
Waning Crescent, 3% of the Moon is Illuminated
Oct 26
Waning Crescent
Oct 27
New
Nov 4
First Quarter
Nov 12
Full
Nov 19
Last Quarter

Hourly Weather History & Observations

Time (PDT) Temp. Dew Point Humidity Pressure Visibility Wind Dir Wind Speed Gust Speed Precip Events Conditions
12:15 AM 57.2 °F 35.6 °F 44% 29.97 in 10.0 mi Calm Calm - N/A   Clear
12:30 AM 57.2 °F 35.6 °F 44% 29.97 in 10.0 mi Calm Calm - N/A   Clear
12:55 AM 55.4 °F 35.6 °F 47% 29.96 in 10.0 mi Calm Calm - N/A   Clear
1:10 AM 57.2 °F 32.0 °F 38% 29.96 in 10.0 mi Calm Calm - N/A   Clear
1:35 AM 53.6 °F 32.0 °F 44% 29.97 in 10.0 mi North 3.5 mph - N/A   Clear
1:50 AM 53.6 °F 32.0 °F 44% 29.96 in 10.0 mi Calm Calm - N/A   Clear
2:15 AM 57.2 °F 33.8 °F 41% 29.95 in 10.0 mi Calm Calm - N/A   Clear
2:30 AM 57.2 °F 33.8 °F 41% 29.95 in 10.0 mi Calm Calm - N/A   Clear
2:50 AM 53.6 °F 33.8 °F 47% 29.95 in 5.0 mi Calm Calm - N/A   Clear
3:10 AM 55.4 °F 33.8 °F 44% 29.94 in 6.0 mi Calm Calm - N/A   Clear
3:30 AM 53.6 °F 32.0 °F 44% 29.94 in 10.0 mi Calm Calm - N/A   Clear
4:10 AM 51.8 °F 32.0 °F 47% 29.93 in 10.0 mi Calm Calm - N/A   Clear
4:35 AM 51.8 °F 32.0 °F 47% 29.93 in 10.0 mi North 3.5 mph - N/A   Clear
4:50 AM 53.6 °F 32.0 °F 44% 29.92 in 10.0 mi NNW 3.5 mph - N/A   Clear
5:15 AM 51.8 °F 32.0 °F 47% 29.92 in 10.0 mi North 4.6 mph - N/A   Clear
5:35 AM 50.0 °F 32.0 °F 50% 29.91 in 3.0 mi Calm Calm - N/A   Clear
5:50 AM 50.0 °F 35.6 °F 58% 29.92 in 10.0 mi North 3.5 mph - N/A   Clear
6:15 AM 53.6 °F 32.0 °F 44% 29.92 in 10.0 mi North 6.9 mph - N/A   Clear
6:30 AM 53.6 °F 32.0 °F 44% 29.92 in 10.0 mi NNW 4.6 mph - N/A   Clear
6:50 AM 53.6 °F 33.8 °F 47% 29.91 in 10.0 mi NNW 3.5 mph - N/A   Clear
7:10 AM 53.6 °F 35.6 °F 51% 29.91 in 10.0 mi Calm Calm - N/A   Clear
7:35 AM 50.0 °F 35.6 °F 58% 29.91 in 10.0 mi Calm Calm - N/A   Clear
7:50 AM 50.0 °F 35.6 °F 58% 29.91 in 10.0 mi NNW 3.5 mph - N/A   Clear
8:15 AM 53.6 °F 33.8 °F 47% 29.91 in 10.0 mi North 4.6 mph - N/A   Clear
8:35 AM 55.4 °F 35.6 °F 47% 29.91 in 10.0 mi Calm Calm - N/A   Clear
8:50 AM 57.2 °F 35.6 °F 44% 29.92 in 10.0 mi NNW 3.5 mph - N/A   Clear
9:15 AM 59.0 °F 35.6 °F 42% 29.92 in 10.0 mi North 4.6 mph - N/A   Clear
9:35 AM 60.8 °F 35.6 °F 39% 29.92 in 10.0 mi North 4.6 mph - N/A   Clear
9:50 AM 64.4 °F 37.4 °F 37% 29.92 in 10.0 mi North 5.8 mph - N/A   Clear
10:15 AM 66.2 °F 37.4 °F 35% 29.92 in 10.0 mi NNE 4.6 mph - N/A   Clear
10:30 AM 66.2 °F 37.4 °F 35% 29.92 in 10.0 mi North 5.8 mph - N/A   Clear
10:55 AM 69.8 °F 37.4 °F 31% 29.91 in 10.0 mi North 4.6 mph - N/A   Clear
11:10 AM 71.6 °F 35.6 °F 27% 29.90 in 10.0 mi North 4.6 mph - N/A   Clear
11:35 AM 75.2 °F 37.4 °F 25% 29.89 in 10.0 mi North 8.1 mph - N/A   Clear
11:55 AM 75.2 °F 35.6 °F 24% 29.88 in 10.0 mi NNW 6.9 mph - N/A   Clear
12:10 PM 75.2 °F 35.6 °F 24% 29.87 in 10.0 mi NNE 5.8 mph - N/A   Clear
12:35 PM 77.0 °F 37.4 °F 24% 29.86 in 10.0 mi NNW 4.6 mph - N/A   Clear
12:50 PM 77.0 °F 37.4 °F 24% 29.85 in 10.0 mi NNE 8.1 mph - N/A   Clear
1:15 PM 77.0 °F 39.2 °F 26% 29.84 in 10.0 mi NW 4.6 mph - N/A   Clear
1:30 PM 80.6 °F 39.2 °F 23% 29.83 in 10.0 mi North 8.1 mph - N/A   Clear
1:55 PM 80.6 °F 39.2 °F 23% 29.82 in 10.0 mi NNW 9.2 mph - N/A   Clear
2:10 PM 80.6 °F 39.2 °F 23% 29.81 in 10.0 mi North 5.8 mph - N/A   Clear
2:35 PM 80.6 °F 37.4 °F 21% 29.79 in 10.0 mi North 6.9 mph - N/A   Clear
2:50 PM 82.4 °F 39.2 °F 21% 29.79 in 10.0 mi North 6.9 mph - N/A   Clear
3:15 PM 82.4 °F 37.4 °F 20% 29.77 in 10.0 mi North 4.6 mph - N/A   Clear
3:30 PM 82.4 °F 39.2 °F 21% 29.77 in 10.0 mi North 3.5 mph - N/A   Clear
3:55 PM 82.4 °F 39.2 °F 21% 29.76 in 10.0 mi NW 4.6 mph - N/A   Clear
4:10 PM 82.4 °F 39.2 °F 21% 29.76 in 9.0 mi NNE 4.6 mph - N/A   Clear
4:35 PM 82.4 °F 39.2 °F 21% 29.75 in 10.0 mi North 5.8 mph - N/A   Clear
4:50 PM 82.4 °F 39.2 °F 21% 29.75 in 10.0 mi NNE 5.8 mph - N/A   Clear
5:15 PM 80.6 °F 37.4 °F 21% 29.74 in 10.0 mi NNE 6.9 mph - N/A   Clear
5:30 PM 80.6 °F 39.2 °F 23% 29.74 in 10.0 mi North 4.6 mph - N/A   Clear
5:55 PM 78.8 °F 39.2 °F 24% 29.73 in 10.0 mi Calm Calm - N/A   Clear
6:15 PM 73.4 °F 41.0 °F 31% 29.73 in 10.0 mi Calm Calm - N/A   Clear
6:55 PM 68.0 °F 42.8 °F 40% 29.72 in 10.0 mi Calm Calm - N/A   Clear
7:10 PM 68.0 °F 41.0 °F 37% 29.72 in 10.0 mi Calm Calm - N/A   Clear
7:30 PM 66.2 °F 41.0 °F 40% 29.72 in 10.0 mi North - - N/A   Clear
7:50 PM 64.4 °F 41.0 °F 42% 29.72 in 10.0 mi Calm Calm - N/A   Clear
8:35 PM 62.6 °F 41.0 °F 45% 29.72 in 10.0 mi West 3.5 mph - N/A   Clear
8:50 PM 62.6 °F 41.0 °F 45% 29.72 in 10.0 mi Calm Calm - N/A   Clear
9:15 PM 59.0 °F 41.0 °F 51% 29.72 in 10.0 mi Calm Calm - N/A   Clear
9:35 PM 59.0 °F 41.0 °F 51% 29.72 in 10.0 mi Calm Calm - N/A   Clear
9:50 PM 59.0 °F 41.0 °F 51% 29.72 in 10.0 mi WNW 3.5 mph - N/A   Clear
10:15 PM 57.2 °F 39.2 °F 51% 29.72 in 10.0 mi Calm Calm - N/A   Clear
10:30 PM 59.0 °F 39.2 °F 48% 29.73 in 10.0 mi NW 3.5 mph - N/A   Clear
10:55 PM 62.6 °F 39.2 °F 42% 29.74 in 10.0 mi NNW 8.1 mph - N/A   Clear
11:10 PM 64.4 °F 35.6 °F 34% 29.75 in 10.0 mi North 9.2 mph - N/A   Clear
11:35 PM 68.0 °F 26.6 °F 21% 29.75 in 10.0 mi North 15.0 mph 19.6 mph N/A   Clear
11:50 PM 68.0 °F 17.6 °F 15% 29.76 in 6.0 mi NNW 17.3 mph 25.3 mph N/A   Partly Cloudy